Flag for U.S.A. Weather past 2 weeks in Decatur, Illinois, U.S.A.

Now
72 °F

Light rain. Passing clouds.


Feels Like: 68 °F
Forecast: 58 / 75 °F
Wind: 7 mph from Northwest

Location: Decatur Airport

Current Time: Jul 7, 2015 at 7:01:35 AM

Latest Report: Jul 7, 2015 at 5:54 AM


Visibility: 7 mi

Pressure: 29.86 "Hg

Humidity: 93%

Dew point: 70 °F

Location of DecaturLocation

Historic Weather in Decatur — Graph

°F

Decatur temperature yesterday

Maximum temperature yesterday: 86 °F (at 4:54 PM)
Minimum temperature yesterday: 63 °F (at 3:54 AM)
Average temperature yesterday: 77 °F

Past Weeks' High & Low Weather Summary

 TemperatureHumidityPressure
High88 °F (Jun 22, 3:54 PM)96% (Jun 26, 6:01 AM)30.22 "Hg (Jun 26, 6:01 AM)
Low58 °F (Jun 28, 1:54 AM)44% (Jun 23, 2:54 PM)29.73 "Hg (Jun 29, 3:54 AM)
Average72 °F78%29.94 "Hg
* Reported Jun 22 5:54 AM — Jul 7 5:54 AM, Decatur, Weather by CustomWeather, © 2015

Note: Actual official high and low records may vary slightly from our data, if they occured in-between our weather recording intervals... More about our weather records

Advertising

Decatur weather history for previous 24 hours

 ConditionsComfort  
Time TempWeatherWind HumidityBarometerVisibility
5:54 AM
Tue, Jul 7
72 °FLight rain. Passing clouds.7 mph93%29.86 "Hg7 mi
5:04 AM73 °FHeavy rain. Fog.16 mph94%29.90 "Hg2 mi
4:54 AM73 °FLight rain. Mostly cloudy.7 mph94%29.86 "Hg7 mi
4:03 AM74 °FHeavy rain. Fog.12 mph91%29.87 "Hg2 mi
3:54 AM77 °FLight rain. Mostly cloudy.9 mph85%29.85 "Hg10 mi
2:54 AM77 °FPartly cloudy.12 mph88%29.85 "Hg10 mi
1:54 AM77 °FPassing clouds.13 mph88%29.86 "Hg10 mi
12:54 AM77 °FClear.14 mph88%29.86 "Hg10 mi
11:54 PM
Mon, Jul 6
78 °FClear.13 mph84%29.87 "Hg10 mi
10:54 PM76 °FClear.9 mph91%29.88 "Hg10 mi
9:54 PM77 °FClear.9 mph82%29.90 "Hg10 mi
8:54 PM77 °FSunny.9 mph82%29.90 "Hg10 mi
7:54 PM78 °FSunny.8 mph76%29.89 "Hg10 mi
6:54 PM80 °FSunny.12 mph69%29.89 "Hg10 mi
5:54 PM83 °FSunny.14 mph65%29.89 "Hg10 mi
4:54 PM86 °FSunny.12 mph70%29.89 "Hg10 mi
3:54 PM84 °FPartly sunny.15 mph72%29.93 "Hg10 mi
2:54 PM85 °FPassing clouds.14 mph70%29.93 "Hg10 mi
1:54 PM85 °FBroken clouds.15 mph70%29.94 "Hg10 mi
12:54 PM85 °FPartly sunny.15 mph68%29.95 "Hg10 mi
11:54 AM84 °FSunny.14 mph70%29.98 "Hg10 mi
10:54 AM82 °FSunny.13 mph72%30.00 "Hg10 mi
9:54 AM80 °FSunny.15 mph74%30.00 "Hg10 mi
8:54 AM77 °FSunny.13 mph77%30.01 "Hg6 mi
7:54 AM73 °FSunny.12 mph79%30.01 "Hg5 mi
Weather by CustomWeather, © 2015

See weather overviewHow to use our weather pages